Location: Prairie State College
(41.5244°N, 87.6382°W)
Time: 01:52:00
(UTC-05:00)

ARGOS Delta rocket - Visible Passes

Search period start: 24 April 2018 00:00
Search period end: 04 May 2018 00:00
Orbit: 635 x 838 km, 96.5° (Epoch: 23 April)

Date Brightness Start Highest point End Pass type
(mag) Time Alt. Az. Time Alt. Az. Time Alt. Az.
25 Apr 7.3 20:50:03 10° NNW 20:53:04 16° WNW 20:56:10 10° W visible
26 Apr 5.9 20:03:40 10° N 20:08:26 37° WNW 20:13:22 10° SW visible
27 Apr 7.5 20:59:10 10° NW 21:01:28 13° WNW 21:03:47 10° W visible
28 Apr 6.4 20:12:19 10° N 20:16:53 31° WNW 20:21:35 10° SW visible
29 Apr 7.8 21:08:53 10° NW 21:09:49 10° WNW 21:10:45 10° WNW visible
30 Apr 7.7 05:03:28 10° ENE 05:04:42 11° ENE 05:05:56 10° NE visible
30 Apr 6.8 20:21:02 10° NNW 20:25:19 26° WNW 20:29:43 10° WSW visible
02 May 7.3 05:10:38 10° E 05:13:01 14° ENE 05:15:28 10° NNE visible
02 May 7.1 20:29:49 10° NNW 20:33:45 21° WNW 20:37:44 10° WSW visible
